| time (UTC) | temp C | wind direction | speed KPH | gust KPH | rain 1hr cm | rain 24hr cm | rain mn cm | humidity % | barometer mb |
| 20260510071516 | 13 | 220 | 0.0 | 0.0 | 0.00 | 0.00 | 0.00 | 83 | 1013.6 |
| 20260510070023 | 14 | 189 | 0.0 | 1.6 | 0.00 | 0.00 | 0.00 | 81 | 1013.6 |
| 20260510064516 | 14 | 189 | 0.0 | 1.6 | 0.00 | 0.00 | 0.00 | 82 | 1013.7 |
| 20260510063019 | 14 | 188 | 0.0 | 1.6 | 0.00 | 0.00 | 0.00 | 80 | 1013.7 |
| 20260510061508 | 13 | 189 | 0.0 | 1.6 | 0.00 | 0.00 | 0.00 | 81 | 1013.7 |
| 20260510060010 | 13 | 188 | 0.0 | 1.6 | 0.00 | 0.00 | 0.00 | 83 | 1013.9 |
| 20260510054514 | 13 | 182 | 0.0 | 1.6 | 0.00 | 0.00 | 0.00 | 83 | 1013.9 |
| 20260510053044 | 13 | 182 | 0.0 | 3.2 | 0.00 | 0.00 | 0.00 | 82 | 1013.9 |
| 20260510051516 | 13 | 186 | 0.0 | 3.2 | 0.00 | 0.00 | 0.00 | 81 | 1013.9 |
| 20260510050015 | 14 | 184 | 1.6 | 4.8 | 0.00 | 0.00 | 0.00 | 80 | 1013.8 |
| 20260510044510 | 14 | 197 | 1.6 | 4.8 | 0.00 | 0.00 | 0.00 | 81 | 1013.6 |
| 20260510043033 | 14 | 199 | 1.6 | 8.0 | 0.00 | 0.00 | 0.00 | 81 | 1013.5 |
| 20260510041526 | 14 | 188 | 0.0 | 3.2 | 0.00 | 0.00 | 0.00 | 83 | 1013.6 |
| 20260510040033 | 14 | 190 | 0.0 | 4.8 | 0.00 | 0.00 | 0.00 | 82 | 1013.3 |
| 20260510034520 | 15 | 192 | 1.6 | 3.2 | 0.00 | 0.00 | 0.00 | 82 | 1013.1 |
| 20260510033018 | 15 | 193 | 0.0 | 3.2 | 0.00 | 0.00 | 0.00 | 81 | 1012.9 |
| 20260510031518 | 15 | 210 | 0.0 | 1.6 | 0.00 | 0.00 | 0.00 | 80 | 1012.7 |
| 20260510030023 | 16 | 202 | 0.0 | 3.2 | 0.00 | 0.00 | 0.00 | 79 | 1012.5 |
| 20260510024527 | 16 | 190 | 0.0 | 1.6 | 0.00 | 0.00 | 0.00 | 79 | 1012.3 |
| 20260510023016 | 16 | 204 | 0.0 | 1.6 | 0.00 | 0.00 | 0.00 | 77 | 1012.0 |
| 20260510021527 | 17 | 204 | 0.0 | 1.6 | 0.00 | 0.00 | 0.00 | 75 | 1011.6 |
| 20260510020018 | 17 | 204 | 0.0 | 1.6 | 0.00 | 0.00 | 0.00 | 74 | 1011.5 |
| 20260510014514 | 17 | 294 | 0.0 | 1.6 | 0.00 | 0.03 | 0.00 | 75 | 1011.1 |
| 20260510013022 | 18 | 281 | 0.0 | 1.6 | 0.00 | 0.05 | 0.00 | 73 | 1010.7 |
| 20260510011517 | 19 | 281 | 0.0 | 1.6 | 0.00 | 0.08 | 0.00 | 74 | 1010.5 |
| 20260510010019 | 20 | 233 | 0.0 | 1.6 | 0.00 | 0.10 | 0.00 | 72 | 1010.4 |
| 20260510004525 | 21 | 213 | 0.0 | 0.0 | 0.00 | 0.10 | 0.00 | 64 | 1010.4 |
| 20260510003021 | 22 | 213 | 0.0 | 1.6 | 0.00 | 0.10 | 0.00 | 63 | 1010.1 |
| 20260510001516 | 24 | 210 | 0.0 | 3.2 | 0.00 | 0.10 | 0.00 | 46 | 1010.2 |
| 20260510000023 | 25 | 229 | 0.0 | 1.6 | 0.00 | 0.10 | 0.00 | 47 | 1010.1 |
| 20260509234522 | 25 | 248 | 0.0 | 3.2 | 0.00 | 0.10 | 0.00 | 42 | 1010.1 |
| 20260509233022 | 26 | 178 | 0.0 | 4.8 | 0.00 | 0.10 | 0.00 | 37 | 1010.2 |
| 20260509231526 | 26 | 169 | 0.0 | 4.8 | 0.00 | 0.10 | 0.00 | 37 | 1010.4 |
| 20260509230018 | 26 | 300 | 1.6 | 3.2 | 0.00 | 0.10 | 0.00 | 39 | 1010.4 |
| 20260509224520 | 26 | 14 | 0.0 | 3.2 | 0.00 | 0.10 | 0.00 | 40 | 1010.3 |
| 20260509223018 | 26 | 221 | 1.6 | 4.8 | 0.00 | 0.10 | 0.00 | 33 | 1010.2 |
| 20260509221514 | 27 | 296 | 1.6 | 4.8 | 0.00 | 0.10 | 0.00 | 38 | 1010.1 |
| 20260509220018 | 27 | 213 | 0.0 | 3.2 | 0.00 | 0.10 | 0.00 | 39 | 1010.2 |
| 20260509214523 | 26 | 327 | 1.6 | 6.4 | 0.00 | 0.10 | 0.00 | 43 | 1010.3 |
| 20260509213031 | 25 | 160 | 0.0 | 3.2 | 0.00 | 0.10 | 0.00 | 40 | 1010.4 |
| 20260509211524 | 26 | 88 | 1.6 | 4.8 | 0.00 | 0.10 | 0.00 | 38 | 1010.4 |
| 20260509210013 | 26 | 86 | 1.6 | 11.3 | 0.00 | 0.10 | 0.00 | 36 | 1010.6 |
| 20260509204514 | 27 | 242 | 1.6 | 6.4 | 0.00 | 0.10 | 0.00 | 32 | 1010.8 |
| 20260509203017 | 27 | 352 | 1.6 | 6.4 | 0.00 | 0.10 | 0.00 | 37 | 1010.8 |
| 20260509201517 | 27 | 96 | 0.0 | 8.0 | 0.00 | 0.10 | 0.00 | 32 | 1011.0 |
| 20260509200014 | 27 | 55 | 1.6 | 6.4 | 0.00 | 0.10 | 0.00 | 32 | 1011.1 |
| 20260509194518 | 27 | 35 | 1.6 | 6.4 | 0.00 | 0.10 | 0.00 | 36 | 1011.1 |
| 20260509193026 | 27 | 321 | 1.6 | 6.4 | 0.00 | 0.10 | 0.00 | 37 | 1011.3 |
| 20260509191532 | 26 | 176 | 1.6 | 4.8 | 0.00 | 0.10 | 0.00 | 34 | 1011.3 |
| 20260509190023 | 26 | 342 | 3.2 | 8.0 | 0.00 | 0.10 | 0.00 | 39 | 1011.4 |
| 20260509184532 | 26 | 183 | 1.6 | 6.4 | 0.00 | 0.10 | 0.00 | 37 | 1011.4 |
| 20260509183029 | 26 | 130 | 1.6 | 8.0 | 0.00 | 0.10 | 0.00 | 38 | 1011.4 |
| 20260509181523 | 26 | 93 | 0.0 | 6.4 | 0.00 | 0.10 | 0.00 | 45 | 1011.6 |
| 20260509180022 | 26 | 254 | 8.0 | 16.1 | 0.00 | 0.10 | 0.00 | 41 | 1011.4 |
| 20260509174524 | 26 | 345 | 1.6 | 8.0 | 0.00 | 0.10 | 0.00 | 37 | 1011.4 |
| 20260509173021 | 25 | 315 | 1.6 | 4.8 | 0.00 | 0.10 | 0.00 | 39 | 1011.6 |
| 20260509171515 | 25 | 14 | 0.0 | 4.8 | 0.00 | 0.10 | 0.00 | 46 | 1011.7 |
| 20260509170025 | 24 | 262 | 0.0 | 6.4 | 0.00 | 0.10 | 0.00 | 53 | 1011.8 |
| 20260509164525 | 24 | 217 | 1.6 | 8.0 | 0.00 | 0.10 | 0.00 | 58 | 1012.2 |
| 20260509163026 | 23 | 198 | 3.2 | 8.0 | 0.00 | 0.10 | 0.00 | 55 | 1012.2 |
| 20260509161523 | 23 | 158 | 1.6 | 6.4 | 0.00 | 0.10 | 0.00 | 62 | 1012.2 |
| 20260509160025 | 22 | 317 | 1.6 | 4.8 | 0.00 | 0.10 | 0.00 | 62 | 1012.2 |
| 20260509154524 | 21 | 304 | 0.0 | 8.0 | 0.00 | 0.10 | 0.00 | 69 | 1012.2 |
| 20260509153039 | 21 | 313 | 0.0 | 6.4 | 0.00 | 0.10 | 0.00 | 70 | 1012.1 |
| 20260509151523 | 20 | 5 | 0.0 | 9.7 | 0.00 | 0.10 | 0.00 | 74 | 1012.0 |
| 20260509150026 | 19 | 211 | 4.8 | 9.7 | 0.00 | 0.10 | 0.00 | 76 | 1012.0 |
| 20260509144530 | 18 | 166 | 1.6 | 6.4 | 0.00 | 0.10 | 0.00 | 81 | 1012.1 |
| 20260509143029 | 17 | 162 | 1.6 | 6.4 | 0.00 | 0.10 | 0.00 | 85 | 1012.0 |
| 20260509141524 | 16 | 205 | 0.0 | 6.4 | 0.00 | 0.10 | 0.00 | 85 | 1011.9 |
| 20260509140008 | 15 | 185 | 0.0 | 6.4 | 0.00 | 0.10 | 0.00 | 89 | 1012.0 |
| 20260509134508 | 13 | 188 | 0.0 | 3.2 | 0.00 | 0.10 | 0.00 | 93 | 1011.8 |
| 20260509133014 | 12 | 169 | 0.0 | 0.0 | 0.00 | 0.10 | 0.00 | 94 | 1011.7 |
| 20260509131511 | 12 | 169 | 0.0 | 1.6 | 0.00 | 0.10 | 0.00 | 94 | 1011.7 |
| 20260509130009 | 11 | 191 | 0.0 | 1.6 | 0.00 | 0.10 | 0.00 | 94 | 1011.6 |
| 20260509124503 | 11 | 195 | 0.0 | 1.6 | 0.00 | 0.10 | 0.00 | 94 | 1011.6 |
| 20260509123004 | 10 | 196 | 0.0 | 3.2 | 0.00 | 0.10 | 0.00 | 95 | 1011.5 |
| 20260509121510 | 10 | 184 | 0.0 | 1.6 | 0.00 | 0.10 | 0.00 | 94 | 1011.4 |
| 20260509120005 | 9 | 188 | 0.0 | 1.6 | 0.00 | 0.10 | 0.00 | 94 | 1011.3 |
| 20260509114505 | 9 | 190 | 0.0 | 0.0 | 0.00 | 0.10 | 0.00 | 94 | 1011.3 |
| 20260509113004 | 9 | 190 | 0.0 | 1.6 | 0.00 | 0.10 | 0.00 | 94 | 1011.0 |
| 20260509111508 | 9 | 190 | 0.0 | 1.6 | 0.00 | 0.10 | 0.00 | 94 | 1010.8 |
| 20260509110007 | 10 | 190 | 0.0 | 1.6 | 0.00 | 0.10 | 0.00 | 93 | 1010.6 |
| 20260509104510 | 10 | 190 | 0.0 | 3.2 | 0.00 | 0.10 | 0.00 | 93 | 1010.5 |
| 20260509103010 | 10 | 179 | 0.0 | 1.6 | 0.00 | 0.10 | 0.00 | 93 | 1010.3 |
| 20260509101519 | 10 | 179 | 0.0 | 1.6 | 0.00 | 0.10 | 0.00 | 93 | 1010.4 |
| 20260509100015 | 11 | 181 | 0.0 | 3.2 | 0.00 | 0.10 | 0.00 | 93 | 1010.6 |
| 20260509094511 | 11 | 166 | 0.0 | 1.6 | 0.00 | 0.10 | 0.00 | 93 | 1010.7 |
| 20260509093007 | 10 | 184 | 0.0 | 3.2 | 0.00 | 0.10 | 0.00 | 93 | 1010.9 |
| 20260509091514 | 11 | 176 | 0.0 | 1.6 | 0.00 | 0.10 | 0.00 | 92 | 1010.9 |
| 20260509090031 | 11 | 180 | 0.0 | 3.2 | 0.00 | 0.10 | 0.00 | 92 | 1011.0 |
| 20260509084520 | 11 | 187 | 0.0 | 1.6 | 0.00 | 0.10 | 0.00 | 91 | 1011.2 |
| 20260509083032 | 11 | 187 | 0.0 | 3.2 | 0.00 | 0.10 | 0.00 | 92 | 1011.3 |
| 20260509081512 | 11 | 149 | 0.0 | 1.6 | 0.00 | 0.10 | 0.00 | 91 | 1011.1 |
| 20260509080012 | 11 | 188 | 0.0 | 3.2 | 0.00 | 0.10 | 0.00 | 91 | 1011.1 |
| 20260509074520 | 11 | 182 | 0.0 | 4.8 | 0.00 | 0.10 | 0.00 | 90 | 1011.2 |
| 20260509073030 | 11 | 163 | 1.6 | 3.2 | 0.00 | 0.10 | 0.00 | 91 | 1011.0 |